www.pogodaiklimat.ru

Погода и климат >> Архив погоды >> Южная Африка >> Мыс Игольный


ПОГОДА на Мысе Игольном

  • Прогноз погоды на Мысе Игольном
  • Монитор погоды на Мысе Игольном

АРХИВ ПОГОДЫ на Мысе Игольном

Время (UTC), дата Ветер
(напр.,м/с)
 
Видим.   Явления Облачность Т
(С)
Тd
(С)
f
(%)
Тe
(С)
Тes
(С)
Комфортность P
(гПа)
Po
(гПа)
Тmin
(С)
Tmax
(С)
R
(мм)
R24
(мм)
S
(см)
15 10.09 З 5 н/о н/о +18.5 +14.4 77 +19 +19 1012.1 1010.8 +18.5 +19.8
18 10.09 СЗ 3 20 км 1/1 300 м
[Cu Sc]
+16.7 +13.8 83 +17 +17 1013.2 1011.9 +16.7 +19.8
06 11.09 СЗ 2 20 км 3/0
[Cs]
+15.2 +11.4 78 +15 +17 1014.8 1013.5 +14.6
09 11.09 З 3 н/о н/о +19.3 +12.8 66 +21 +21 комфорт 1013.9 1012.6 +14.6 +19.3
12 11.09 З 4 20 км 5/0
[Cs]
+19.0 +13.2 69 +20 +28 1012.9 1011.6 +14.6 +20.0
15 11.09 З 4 н/о н/о +18.5 +13.6 73 +19 +19 1012.2 1010.9 +18.5 +20.0
18 11.09 СЗ 2 20 км 5/5 300 м
[Sc]
+17.2 +13.3 78 +18 +18 1014.4 1013.1 +17.2 +20.0
21 11.09 СЗ 2 н/о н/о +16.6 +12.9 79 +17 +17 1013.8 1012.5 +16.6 +20.0
00 12.09 С 3 н/о н/о +16.0 +11.0 72 +16 +16 1013.2 1011.9 +16.0 +20.0
03 12.09 СЗ 3 н/о н/о +15.4 +12.1 81 +15 +15 1011.1 1009.8 +15.4 +20.0
06 12.09 СЗ 5 20 км слаб. морось 10/10 300 м
[Sc]
+14.3 +11.4 83 +13 +13 1013.2 1011.9 +14.3 0.6
09 12.09 С 6 н/о н/о +16.9 +10.8 67 +16 +16 1013.1 1011.8 +13.5 +16.9
12 12.09 СЗ 5 20 км 10/10 300 м
[Sc]
+16.1 +9.1 63 +15 +15 1013.0 1011.7 +13.5 +17.2 1
15 12.09 СЗ 6 н/о н/о +15.9 +6.4 53 +15 +15 1014.6 1013.3 +15.8 +17.2
18 12.09 С 3 н/о н/о +12.4 +9.9 85 +11 +11 1016.9 1015.6 +12.4 +17.2 4
21 12.09 С 3 н/о н/о +12.5 +10.4 87 +11 +11 1018.2 1016.9 +11.7 +17.2
00 13.09 З 6 н/о н/о +13.1 +8.8 75 +11 +11 1019.3 1018.0 +11.7 +17.2 14
03 13.09 СЗ 6 н/о н/о +14.0 +5.1 55 +12 +12 1019.7 1018.4 +11.7 +17.2
06 13.09 З 6 20 км 8/8 300 м
[Sc]
+14.0 +7.3 64 +12 +12 1021.3 1020.0 +11.7 14
09 13.09 СЗ 5 н/о н/о +13.2 +8.5 73 +11 +11 1023.0 1021.7 +11.7 +15.8
18 13.09 С 1 20 км 5/5 300 м
[Sc]
+12.1 +7.6 74 +12 +12 1022.6 1021.3 +12.1 +16.3 3
21 13.09 С 2 н/о н/о +10.7 +6.8 77 +10 +10 1023.3 1022.0 +10.4 +16.3
00 14.09 СВ 3 н/о н/о +11.3 +7.8 79 +10 +10 1022.1 1020.8 +10.4 +16.3 3
03 14.09 СВ 3 н/о н/о +11.3 +7.2 76 +10 +10 1020.7 1019.4 +10.4 +16.3
06 14.09 В 3 20 км 10/10 300 м
[Sc]
+12.8 +8.9 77 +12 +12 1020.7 1019.4 +10.4 3
09 14.09 В 5 н/о н/о +16.8 +9.5 62 +16 +16 1019.5 1018.2 +10.4 +16.9
12 14.09 ЮВ 2 20 км 4/4 300 м
[Cu Sc]
+17.8 +10.7 63 +18 +26 1017.5 1016.2 +10.4 +18.5
15 14.09 ЮВ 2 н/о н/о +17.5 +12.6 73 +18 +18 1017.0 1015.7 +17.3 +19.2
18 14.09 В 2 н/о н/о +15.9 +12.4 80 +16 +16 1018.0 1016.7 +15.9 +19.2
21 14.09 СВ 2 н/о н/о +15.1 +12.2 83 +15 +15 1016.8 1015.5 +15.0 +19.2
00 15.09 СЗ 1 н/о н/о +13.8 +11.1 84 +14 +14 1015.8 1014.5 +13.8 +19.2
03 15.09 С 2 н/о н/о +13.9 +10.7 81 +14 +14 1015.1 1013.8 +13.5 +19.2
06 15.09 С 2 20 км 10/10 300 м
[Sc]
+14.7 +9.7 72 +14 +14 1016.4 1015.1 +13.5
09 15.09 ЮЗ 2 н/о н/о +18.1 +12.6 70 +19 +19 1016.4 1015.1 +13.5 +18.1
12 15.09 СЗ 3 20 км 6/6 300 м
[Sc]
+20.2 +9.8 51 +22 +26 комфорт 1014.9 1013.7 +13.5 +20.2
15 15.09 СЗ 5 н/о н/о +19.1 +12.6 66 +20 +20 1014.8 1013.5 +19.0 +22.8
18 15.09 С 3 н/о н/о +17.0 +12.9 77 +17 +17 1016.4 1015.1 +16.9 +22.8
21 15.09 С 3 н/о н/о +16.6 +13.1 80 +16 +16 1017.4 1016.1 +15.8 +22.8
00 16.09 СЗ 2 н/о н/о +16.0 +13.3 84 +16 +16 1016.2 1014.9 +15.8 +22.8
03 16.09 СЗ 2 н/о н/о +16.1 +13.7 86 +16 +16 1016.3 1015.0 +15.3 +22.8
06 16.09 С 3 20 км ясно +16.8 +14.8 88 +17 +18 1018.2 1016.9 +15.3
09 16.09 З 5 н/о н/о +19.9 +14.1 69 +22 +22 комфорт 1018.4 1017.1 +15.3 +20.5
12 16.09 СЗ 5 20 км ясно +19.7 +14.8 73 +21 +28 комфорт 1017.4 1016.1 +15.3 +20.5
15 16.09 З 4 н/о н/о +19.3 +15.0 76 +21 +21 комфорт 1017.6 1016.3 +19.3 +20.5
18 16.09 С 2 20 км ясно +16.3 +13.6 84 +17 +17 1019.2 1017.9 +16.3 +20.5
21 16.09 С 2 н/о н/о +15.6 +13.4 87 +16 +16 1019.9 1018.6 +15.6 +20.5
00 17.09 штиль 0 н/о н/о +14.4 +12.1 86 +14 +14 1018.7 1017.4 +14.4 +20.5
03 17.09 СВ 2 н/о н/о +14.6 +12.8 89 +14 +14 1018.5 1017.2 +13.9 +20.5
06 17.09 В 2 20 км ясно +16.6 +14.1 85 +17 +19 1018.9 1017.6 +13.9
09 17.09 ЮВ 2 н/о н/о +21.8 +14.0 61 +25 +25 комфорт 1018.6 1017.4 +13.9 +21.9
12 17.09 ЮЗ 3 20 км ясно +18.9 +15.4 80 +20 +31 1017.8 1016.5 +13.9 +22.0

 

Местоположение метеостанции Мыс Игольный (Южная Африка): широта -34.83 долгота 20.02 высота над уровнем моря 14 м.

В архиве по умолчанию представлена погода на Мысе Игольном за последнюю неделю. Архивные данные за месяц целиком и за предыдущие месяцы, начиная с января 2011 года, Вы можете получить, выбрав интересующий диапазон дат из раскрывающегося списка и нажав кнопку "Ввод!".


*Определитесь, кто Вы:
робот инопланетянин человек

Внимание! Время в таблицах - всемирное. Для получения местного времени необходимо прибавить поправку, которая равна 2 ч.

Смотрите также архив погоды в соседних городах и на ближайших метеорологических станциях:

Погода в Струисбааи (Южная Африка) (6 км)
Погода в Тигерхуке (Южная Африка) (76 км)
Погода в Херманусе (Южная Африка) (86 км)
Погода в Робертсоне (Южная Африка) (115 км)
Погода в Странде (Южная Африка) (132 км)
Погода в Стилбай (Южная Африка) (136 км)
Погода в Риверсдейле (Южная Африка) (140 км)
Погода в Вустере (Южная Африка) (145 км)
Погода на Кейп-Пойнт (Южная Африка) (149 км)
Погода в Парле (Южная Африка) (157 км)

Пояснения к столбцам:

Ветер - указаны скорость ветра в м/с - средняя за 10 мин, порывы в срок и между сроками (в фигурных скобках) и направление, откуда дует ветер: С - северный, СВ - северо-восточный, В - восточный, ЮВ - юго-восточный, Ю - южный, ЮЗ - юго-западный, З - западный, СЗ - северо-западный.
Видимость - горизонтальная дальность видимости в метрах или километрах. При видимости от 1 до 10 км при отсутствии осадков обычно наблюдается дымка, при ухудшении видимости до 1 км и менее - туман. В сухую погоду видимость может ухудшаться дымом, пылью или мглою.
Явления - указаны атмосферные явления, наблюдавшиеся в срок или в последний час перед сроком; фигурными скобками обозначены явления, наблюдавшиеся между сроками (за 1-3 часа до срока); квадратными скобками обозначены град или гололедные отложения с указанием их диаметра в мм.
Облачность - указаны через наклонную черту общая и нижняя облачность в баллах и высота нижней границы облаков в метрах; квадратными скобками обозначены формы облаков: Ci - перистые, Cs - перисто-слоистые, Cc - перисто-кучевые, Ac - высококучевые, As - высокослоистые, Sc - слоисто-кучевые, Ns - слоисто-дождевые, Cu - кучевые, Cb - кучево-дождевые. Подробнее классификацию облаков см. в Атласе облаков (PDF).
T - Температура воздуха - температура, измеренная на высоте 2 м над землей.
Td - Температура точки росы - температура, при понижении до которой содержащийся в воздухе водяной пар достигнет насыщения.
f - Относительная влажность воздуха - влажноcть воздуха, измеренная на высоте 2 м над землей.
Te - Эффективная температура - температура, которую ощущает одетый по сезону человек в тени. Характеристика душности погоды. При расчете учитывается влияние влажности воздуха и скорости ветра на теплоощущения человека.
Tes - Эффективная температура на солнце - температура, которую ощущает человек, с поправкой на солнечный нагрев. Характеристика знойности погоды. Зависит от высоты солнца над горизонтом, облачности и скорости ветра. Ночью, в пасмурную погоду, а также при ветре 12 м/с и более поправка равна нулю.
P - Атмосферное давление - приведенное к уровню моря атмосферное давление.
Po - Атмосферное давление - измеренное на уровне метеостанции атмосферное давление.
Tmin - Минимальная температура - минимум температуры воздуха на высоте 2 м над землей.
Tmax - Максимальная температура - максимум температуры воздуха на высоте 2 м над землей.
R - Количество осадков - Количество выпавших осадков за период времени, мм. При наведении курсора мыши на число - период времени, за который выпало указанное количество осадков.
R24 - Количество осадков - Количество выпавших осадков за 24 часа, мм.
S - Снежный покров - Высота снежного покрова, см. При наведении курсора мыши на число - состояние снежного покрова и степень покрытия местности в баллах.